| time (UTC) | temp C | wind direction | speed KPH | gust KPH | rain 1hr cm | rain 24hr cm | rain mn cm | humidity % | barometer mb |
| 20260510234503 | 12 | 161 | 4.8 | 9.7 | 0.00 | 0.56 | 0.56 | 85 | 1017.4 |
| 20260510233603 | 12 | 169 | 3.2 | 9.7 | 0.00 | 0.56 | 0.56 | 83 | 1017.2 |
| 20260510232703 | 12 | 176 | 4.8 | 9.7 | 0.00 | 0.56 | 0.56 | 82 | 1017.4 |
| 20260510231803 | 12 | 179 | 4.8 | 9.7 | 0.00 | 0.56 | 0.56 | 82 | 1017.3 |
| 20260510230903 | 12 | 169 | 4.8 | 11.3 | 0.00 | 0.56 | 0.56 | 83 | 1017.4 |
| 20260510230003 | 12 | 159 | 4.8 | 11.3 | 0.00 | 0.56 | 0.56 | 83 | 1017.3 |
| 20260510225618 | 12 | 164 | 4.8 | 12.9 | 0.00 | 0.56 | 0.56 | 83 | 1017.3 |
| 20260510224718 | 12 | 162 | 4.8 | 11.3 | 0.00 | 0.56 | 0.56 | 83 | 1017.5 |
| 20260510223603 | 12 | 162 | 4.8 | 12.9 | 0.00 | 0.56 | 0.56 | 83 | 1017.6 |
| 20260510222918 | 12 | 167 | 4.8 | 12.9 | 0.00 | 0.56 | 0.56 | 83 | 1017.8 |
| 20260510221803 | 12 | 168 | 4.8 | 11.3 | 0.00 | 0.56 | 0.56 | 83 | 1017.6 |
| 20260510221117 | 12 | 162 | 6.4 | 12.9 | 0.00 | 0.56 | 0.56 | 83 | 1017.8 |
| 20260510220218 | 12 | 164 | 8.0 | 11.3 | 0.00 | 0.56 | 0.56 | 83 | 1017.6 |
| 20260510215403 | 12 | 166 | 8.0 | 12.9 | 0.00 | 0.56 | 0.56 | 82 | 1017.5 |
| 20260510214503 | 12 | 158 | 9.7 | 14.5 | 0.00 | 0.56 | 0.56 | 81 | 1017.3 |
| 20260510213603 | 12 | 158 | 8.0 | 12.9 | 0.00 | 0.56 | 0.56 | 81 | 1017.4 |
| 20260510212918 | 13 | 158 | 8.0 | 11.3 | 0.00 | 0.56 | 0.56 | 80 | 1017.5 |
| 20260510212017 | 13 | 158 | 8.0 | 11.3 | 0.00 | 0.56 | 0.56 | 79 | 1017.5 |
| 20260510211116 | 13 | 156 | 8.0 | 11.3 | 0.00 | 0.56 | 0.56 | 79 | 1017.5 |
| 20260510210003 | 13 | 151 | 8.0 | 12.9 | 0.00 | 0.56 | 0.56 | 79 | 1017.2 |
| 20260510205403 | 13 | 150 | 8.0 | 12.9 | 0.00 | 0.56 | 0.56 | 78 | 1017.4 |
| 20260510204503 | 13 | 153 | 9.7 | 12.9 | 0.00 | 0.56 | 0.56 | 78 | 1017.3 |
| 20260510203818 | 13 | 147 | 9.7 | 14.5 | 0.00 | 0.56 | 0.56 | 78 | 1017.2 |
| 20260510202917 | 13 | 152 | 9.7 | 14.5 | 0.00 | 0.56 | 0.56 | 78 | 1016.8 |
| 20260510201803 | 13 | 159 | 9.7 | 14.5 | 0.00 | 0.56 | 0.56 | 77 | 1016.9 |
| 20260510200903 | 14 | 161 | 11.3 | 22.5 | 0.00 | 0.56 | 0.56 | 75 | 1016.7 |
| 20260510200003 | 14 | 155 | 11.3 | 17.7 | 0.00 | 0.56 | 0.56 | 75 | 1016.7 |
| 20260510195403 | 14 | 158 | 11.3 | 17.7 | 0.00 | 0.56 | 0.56 | 74 | 1016.3 |
| 20260510194503 | 15 | 158 | 14.5 | 22.5 | 0.00 | 0.56 | 0.56 | 73 | 1016.4 |
| 20260510193603 | 15 | 151 | 14.5 | 22.5 | 0.00 | 0.56 | 0.56 | 73 | 1016.3 |
| 20260510192703 | 15 | 152 | 14.5 | 22.5 | 0.00 | 0.56 | 0.56 | 73 | 1016.3 |
| 20260510191803 | 15 | 160 | 12.9 | 22.5 | 0.00 | 0.56 | 0.56 | 72 | 1016.2 |
| 20260510190903 | 15 | 150 | 16.1 | 29.0 | 0.00 | 0.56 | 0.56 | 70 | 1016.1 |
| 20260510190003 | 15 | 156 | 17.7 | 29.0 | 0.00 | 0.56 | 0.56 | 70 | 1016.4 |
| 20260510185403 | 15 | 159 | 14.5 | 29.0 | 0.00 | 0.56 | 0.56 | 69 | 1016.2 |
| 20260510184503 | 15 | 156 | 16.1 | 27.4 | 0.00 | 0.56 | 0.56 | 70 | 1016.3 |
| 20260510183603 | 16 | 168 | 16.1 | 27.4 | 0.00 | 0.56 | 0.56 | 69 | 1016.2 |
| 20260510182703 | 16 | 153 | 12.9 | 25.7 | 0.00 | 0.56 | 0.56 | 68 | 1016.0 |
| 20260510182018 | 16 | 153 | 16.1 | 33.8 | 0.00 | 0.56 | 0.56 | 70 | 1016.0 |
| 20260510180903 | 16 | 158 | 17.7 | 29.0 | 0.00 | 0.56 | 0.56 | 68 | 1015.8 |
| 20260510180003 | 16 | 157 | 16.1 | 30.6 | 0.00 | 0.56 | 0.56 | 67 | 1015.7 |
| 20260510175403 | 16 | 164 | 14.5 | 30.6 | 0.00 | 0.56 | 0.56 | 68 | 1015.8 |
| 20260510174503 | 16 | 170 | 11.3 | 27.4 | 0.00 | 0.56 | 0.56 | 69 | 1015.7 |
| 20260510173603 | 16 | 174 | 12.9 | 27.4 | 0.00 | 0.56 | 0.56 | 67 | 1015.6 |
| 20260510172703 | 17 | 179 | 9.7 | 20.9 | 0.00 | 0.56 | 0.56 | 69 | 1015.6 |
| 20260510171803 | 16 | 189 | 14.5 | 27.4 | 0.00 | 0.56 | 0.56 | 69 | 1015.4 |
| 20260510170903 | 16 | 171 | 12.9 | 29.0 | 0.00 | 0.56 | 0.56 | 70 | 1015.6 |
| 20260510170003 | 16 | 184 | 12.9 | 25.7 | 0.00 | 0.56 | 0.56 | 69 | 1015.4 |
| 20260510165403 | 17 | 193 | 12.9 | 33.8 | 0.00 | 0.56 | 0.56 | 68 | 1015.4 |
| 20260510164717 | 16 | 177 | 14.5 | 40.2 | 0.00 | 0.56 | 0.56 | 69 | 1015.5 |
| 20260510163603 | 16 | 159 | 16.1 | 33.8 | 0.00 | 0.56 | 0.56 | 81 | 1015.7 |
| 20260510162703 | 16 | 156 | 17.7 | 30.6 | 0.00 | 0.56 | 0.56 | 81 | 1015.5 |
| 20260510161803 | 16 | 154 | 17.7 | 30.6 | 0.00 | 0.56 | 0.56 | 82 | 1015.5 |
| 20260510160903 | 15 | 161 | 16.1 | 27.4 | 0.00 | 0.56 | 0.56 | 85 | 1015.5 |
| 20260510160003 | 15 | 153 | 16.1 | 25.7 | 0.00 | 0.56 | 0.56 | 87 | 1015.4 |
| 20260510155403 | 15 | 154 | 12.9 | 24.1 | 0.00 | 0.56 | 0.56 | 88 | 1015.5 |
| 20260510154503 | 15 | 166 | 11.3 | 24.1 | 0.00 | 0.56 | 0.56 | 88 | 1015.3 |
| 20260510153816 | 15 | 180 | 11.3 | 25.7 | 0.00 | 0.56 | 0.56 | 88 | 1015.3 |
| 20260510152917 | 15 | 192 | 12.9 | 27.4 | 0.00 | 0.56 | 0.56 | 88 | 1015.3 |
| 20260510151803 | 14 | 197 | 16.1 | 33.8 | 0.00 | 0.61 | 0.56 | 88 | 1015.4 |
| 20260510150903 | 14 | 190 | 16.1 | 30.6 | 0.03 | 0.61 | 0.56 | 88 | 1015.4 |
| 20260510150003 | 14 | 198 | 16.1 | 33.8 | 0.03 | 0.64 | 0.56 | 88 | 1015.3 |
| 20260510145403 | 14 | 205 | 16.1 | 33.8 | 0.03 | 0.69 | 0.56 | 89 | 1015.5 |
| 20260510144717 | 13 | 204 | 17.7 | 40.2 | 0.03 | 0.79 | 0.56 | 90 | 1015.2 |
| 20260510143603 | 14 | 207 | 22.5 | 46.7 | 0.03 | 0.89 | 0.56 | 89 | 1015.3 |
| 20260510142706 | 15 | 188 | 12.9 | 30.6 | 0.03 | 0.99 | 0.56 | 86 | 1015.1 |
| 20260510140903 | 16 | 128 | 12.9 | 20.9 | 0.00 | 0.94 | 0.53 | 87 | 1014.8 |
| 20260510140003 | 17 | 122 | 14.5 | 25.7 | 0.00 | 0.94 | 0.53 | 81 | 1014.9 |
| 20260510135403 | 17 | 117 | 14.5 | 25.7 | 0.00 | 0.94 | 0.53 | 79 | 1014.9 |
| 20260510134718 | 17 | 141 | 17.7 | 35.4 | 0.00 | 0.94 | 0.53 | 79 | 1015.0 |
| 20260510133603 | 16 | 141 | 25.7 | 40.2 | 0.00 | 0.94 | 0.53 | 79 | 1015.2 |
| 20260510132707 | 16 | 150 | 24.1 | 38.6 | 0.00 | 0.94 | 0.53 | 79 | 1015.3 |
| 20260510131806 | 17 | 150 | 20.9 | 40.2 | 0.00 | 0.94 | 0.53 | 78 | 1015.3 |
| 20260510130904 | 16 | 145 | 17.7 | 30.6 | 0.00 | 0.94 | 0.53 | 83 | 1015.3 |
| 20260510130003 | 15 | 146 | 16.1 | 27.4 | 0.00 | 0.94 | 0.53 | 85 | 1015.5 |
| 20260510124718 | 15 | 145 | 17.7 | 29.0 | 0.00 | 0.94 | 0.53 | 86 | 1015.7 |
| 20260510123603 | 15 | 149 | 17.7 | 29.0 | 0.00 | 0.94 | 0.53 | 84 | 1015.6 |
| 20260510122709 | 15 | 141 | 19.3 | 29.0 | 0.03 | 0.94 | 0.53 | 84 | 1015.8 |
| 20260510121803 | 14 | 156 | 20.9 | 35.4 | 0.03 | 0.94 | 0.53 | 87 | 1015.9 |
| 20260510120903 | 13 | 144 | 19.3 | 29.0 | 0.03 | 0.94 | 0.53 | 89 | 1015.8 |
| 20260510120003 | 13 | 142 | 17.7 | 25.7 | 0.03 | 0.94 | 0.53 | 90 | 1015.9 |
| 20260510115403 | 13 | 141 | 17.7 | 25.7 | 0.03 | 0.94 | 0.53 | 91 | 1016.0 |
| 20260510114717 | 12 | 153 | 19.3 | 30.6 | 0.03 | 0.94 | 0.53 | 91 | 1015.9 |
| 20260510113603 | 12 | 182 | 12.9 | 29.0 | 0.03 | 0.94 | 0.53 | 91 | 1016.1 |
| 20260510112918 | 12 | 199 | 14.5 | 38.6 | 0.05 | 0.91 | 0.51 | 90 | 1015.8 |
| 20260510111803 | 13 | 191 | 12.9 | 33.8 | 0.05 | 0.91 | 0.51 | 91 | 1016.1 |
| 20260510110903 | 13 | 195 | 12.9 | 25.7 | 0.10 | 0.91 | 0.51 | 91 | 1016.3 |
| 20260510110003 | 13 | 200 | 14.5 | 30.6 | 0.33 | 0.91 | 0.51 | 91 | 1016.3 |
| 20260510105403 | 13 | 195 | 12.9 | 29.0 | 0.41 | 0.91 | 0.51 | 91 | 1016.2 |
| 20260510104503 | 13 | 195 | 12.9 | 25.7 | 0.51 | 0.91 | 0.51 | 91 | 1016.2 |
| 20260510103603 | 13 | 182 | 11.3 | 25.7 | 0.51 | 0.91 | 0.51 | 91 | 1016.2 |
| 20260510102703 | 13 | 193 | 11.3 | 22.5 | 0.46 | 0.86 | 0.46 | 91 | 1016.3 |
| 20260510101803 | 13 | 207 | 12.9 | 25.7 | 0.46 | 0.86 | 0.46 | 91 | 1015.8 |
| 20260510100903 | 13 | 213 | 14.5 | 25.7 | 0.43 | 0.84 | 0.43 | 91 | 1016.1 |
| 20260510100003 | 14 | 176 | 9.7 | 20.9 | 0.18 | 0.61 | 0.18 | 90 | 1015.7 |
| 20260510095403 | 14 | 158 | 12.9 | 25.7 | 0.10 | 0.51 | 0.10 | 89 | 1015.5 |
| 20260510094503 | 15 | 149 | 14.5 | 22.5 | 0.00 | 0.41 | 0.00 | 84 | 1015.3 |
| 20260510093603 | 15 | 142 | 12.9 | 24.1 | 0.00 | 0.41 | 0.00 | 84 | 1015.5 |
| 20260510092703 | 15 | 130 | 9.7 | 16.1 | 0.00 | 0.41 | 0.00 | 85 | 1015.3 |
| 20260510092017 | 15 | 129 | 8.0 | 14.5 | 0.00 | 0.41 | 0.00 | 86 | 1015.4 |
| 20260510091118 | 15 | 128 | 9.7 | 16.1 | 0.00 | 0.41 | 0.00 | 87 | 1015.2 |
| 20260510090003 | 15 | 134 | 9.7 | 20.9 | 0.00 | 0.41 | 0.00 | 85 | 1015.4 |
| 20260510085403 | 15 | 132 | 11.3 | 20.9 | 0.00 | 0.41 | 0.00 | 85 | 1015.4 |
| 20260510084503 | 15 | 127 | 11.3 | 20.9 | 0.00 | 0.41 | 0.00 | 86 | 1015.5 |
| 20260510083603 | 15 | 117 | 9.7 | 16.1 | 0.00 | 0.41 | 0.00 | 85 | 1015.4 |
| 20260510082703 | 15 | 119 | 11.3 | 22.5 | 0.00 | 0.41 | 0.00 | 85 | 1015.5 |
| 20260510082016 | 15 | 113 | 9.7 | 22.5 | 0.00 | 0.41 | 0.00 | 84 | 1015.3 |
| 20260510080903 | 14 | 126 | 8.0 | 14.5 | 0.00 | 0.48 | 0.00 | 87 | 1015.3 |
| 20260510080003 | 13 | 128 | 8.0 | 14.5 | 0.00 | 0.51 | 0.00 | 88 | 1015.4 |
| 20260510075403 | 13 | 126 | 8.0 | 14.5 | 0.00 | 0.51 | 0.00 | 89 | 1015.5 |
| 20260510074503 | 13 | 98 | 8.0 | 17.7 | 0.00 | 0.51 | 0.00 | 89 | 1015.5 |
| 20260510073603 | 13 | 98 | 8.0 | 17.7 | 0.00 | 0.51 | 0.00 | 90 | 1015.4 |
| 20260510072703 | 13 | 113 | 8.0 | 16.1 | 0.00 | 0.51 | 0.00 | 90 | 1015.5 |
| 20260510071803 | 13 | 131 | 8.0 | 17.7 | 0.00 | 0.51 | 0.00 | 90 | 1015.7 |
| 20260510070903 | 13 | 129 | 8.0 | 14.5 | 0.00 | 0.51 | 0.00 | 90 | 1015.6 |
| 20260510070217 | 13 | 117 | 8.0 | 14.5 | 0.00 | 0.51 | 0.00 | 89 | 1015.5 |
| 20260510065403 | 13 | 121 | 9.7 | 16.1 | 0.00 | 0.51 | 0.00 | 89 | 1015.6 |
| 20260510064503 | 13 | 124 | 9.7 | 16.1 | 0.00 | 0.51 | 0.00 | 89 | 1015.5 |
| 20260510063817 | 13 | 125 | 9.7 | 17.7 | 0.00 | 0.51 | 0.00 | 88 | 1015.4 |
| 20260510062703 | 13 | 128 | 9.7 | 20.9 | 0.00 | 0.51 | 0.00 | 87 | 1015.3 |
| 20260510061803 | 13 | 116 | 9.7 | 17.7 | 0.00 | 0.51 | 0.00 | 87 | 1015.3 |
| 20260510060903 | 13 | 123 | 8.0 | 24.1 | 0.00 | 0.51 | 0.00 | 87 | 1014.9 |
| 20260510060218 | 13 | 119 | 8.0 | 24.1 | 0.00 | 0.51 | 0.00 | 87 | 1015.3 |
| 20260510055403 | 13 | 110 | 8.0 | 12.9 | 0.00 | 0.51 | 0.00 | 86 | 1015.2 |
| 20260510054503 | 13 | 118 | 9.7 | 17.7 | 0.00 | 0.51 | 0.00 | 85 | 1015.2 |
| 20260510053603 | 13 | 116 | 9.7 | 17.7 | 0.00 | 0.51 | 0.00 | 84 | 1014.8 |
| 20260510052703 | 13 | 111 | 9.7 | 16.1 | 0.00 | 0.51 | 0.00 | 83 | 1015.0 |
| 20260510051803 | 13 | 110 | 8.0 | 14.5 | 0.00 | 0.51 | 0.00 | 83 | 1015.0 |
| 20260510050903 | 13 | 111 | 9.7 | 16.1 | 0.00 | 0.51 | 0.00 | 82 | 1014.8 |
| 20260510050003 | 13 | 111 | 8.0 | 12.9 | 0.00 | 0.51 | 0.00 | 83 | 1014.8 |
| 20260510045403 | 13 | 111 | 6.4 | 11.3 | 0.00 | 0.51 | 0.00 | 84 | 1014.7 |
| 20260510044503 | 13 | 113 | 6.4 | 12.9 | 0.00 | 0.51 | 0.00 | 84 | 1014.8 |
| 20260510043818 | 12 | 114 | 6.4 | 11.3 | 0.00 | 0.51 | 0.00 | 84 | 1014.9 |
| 20260510042703 | 12 | 113 | 4.8 | 11.3 | 0.00 | 0.51 | 0.00 | 85 | 1014.7 |
| 20260510041803 | 12 | 111 | 4.8 | 9.7 | 0.00 | 0.51 | 0.00 | 86 | 1014.5 |
| 20260510040903 | 12 | 112 | 4.8 | 9.7 | 0.00 | 0.51 | 0.00 | 86 | 1014.7 |
| 20260510040003 | 12 | 116 | 4.8 | 6.4 | 0.00 | 0.51 | 0.00 | 87 | 1014.6 |
| 20260510035403 | 12 | 118 | 4.8 | 9.7 | 0.00 | 0.51 | 0.00 | 87 | 1014.8 |
| 20260510034503 | 12 | 117 | 4.8 | 9.7 | 0.00 | 0.51 | 0.00 | 87 | 1014.8 |
| 20260510033603 | 12 | 108 | 4.8 | 11.3 | 0.00 | 0.51 | 0.00 | 87 | 1014.9 |
| 20260510032703 | 12 | 112 | 4.8 | 11.3 | 0.00 | 0.51 | 0.00 | 86 | 1014.7 |
| 20260510031803 | 12 | 121 | 4.8 | 9.7 | 0.00 | 0.51 | 0.00 | 87 | 1014.8 |
| 20260510030903 | 12 | 116 | 4.8 | 11.3 | 0.00 | 0.51 | 0.00 | 87 | 1014.9 |
| 20260510030003 | 12 | 104 | 4.8 | 9.7 | 0.00 | 0.51 | 0.00 | 87 | 1014.8 |
| 20260510025403 | 12 | 102 | 4.8 | 12.9 | 0.00 | 0.51 | 0.00 | 88 | 1015.0 |
| 20260510024718 | 12 | 109 | 6.4 | 12.9 | 0.00 | 0.51 | 0.00 | 87 | 1014.6 |
| 20260510023603 | 12 | 108 | 6.4 | 12.9 | 0.00 | 0.51 | 0.00 | 87 | 1014.9 |
| 20260510022703 | 12 | 102 | 4.8 | 12.9 | 0.00 | 0.51 | 0.00 | 88 | 1015.0 |
| 20260510021803 | 12 | 97 | 4.8 | 9.7 | 0.00 | 0.51 | 0.00 | 87 | 1014.9 |
| 20260510020903 | 12 | 94 | 4.8 | 9.7 | 0.00 | 0.51 | 0.00 | 88 | 1015.1 |
| 20260510020003 | 12 | 100 | 4.8 | 9.7 | 0.00 | 0.51 | 0.00 | 88 | 1015.1 |
| 20260510015403 | 12 | 114 | 4.8 | 9.7 | 0.00 | 0.51 | 0.00 | 88 | 1015.1 |
| 20260510014503 | 12 | 110 | 4.8 | 9.7 | 0.00 | 0.51 | 0.00 | 88 | 1015.2 |
| 20260510013603 | 12 | 111 | 4.8 | 11.3 | 0.00 | 0.51 | 0.00 | 88 | 1015.2 |
| 20260510012704 | 12 | 108 | 4.8 | 12.9 | 0.00 | 0.51 | 0.00 | 88 | 1015.2 |
| 20260510011803 | 12 | 109 | 4.8 | 11.3 | 0.00 | 0.51 | 0.00 | 88 | 1015.3 |
| 20260510010903 | 12 | 95 | 3.2 | 9.7 | 0.00 | 0.51 | 0.00 | 89 | 1015.4 |
| 20260510010003 | 12 | 106 | 3.2 | 6.4 | 0.00 | 0.51 | 0.00 | 89 | 1015.5 |
| 20260510005618 | 12 | 104 | 3.2 | 6.4 | 0.00 | 0.51 | 0.00 | 89 | 1015.5 |
| 20260510004503 | 12 | 85 | 3.2 | 6.4 | 0.00 | 0.51 | 0.00 | 89 | 1015.6 |
| 20260510003603 | 12 | 94 | 3.2 | 6.4 | 0.00 | 0.51 | 0.00 | 89 | 1015.6 |
| 20260510002918 | 12 | 110 | 1.6 | 4.8 | 0.00 | 0.51 | 0.00 | 89 | 1015.6 |
| 20260510001803 | 12 | 116 | 1.6 | 4.8 | 0.00 | 0.51 | 0.00 | 88 | 1015.8 |
| 20260510000903 | 12 | 120 | 1.6 | 4.8 | 0.00 | 0.51 | 0.00 | 88 | 1016.1 |
| 20260510000007 | 12 | 113 | 3.2 | 6.4 | 0.00 | 0.51 | 0.00 | 88 | 1016.0 |
| 20260509235403 | 12 | 119 | 3.2 | 4.8 | 0.00 | 0.51 | 0.51 | 88 | 1016.0 |